Regional Weather Roundup
Issued by NWS

Home | Current Version | Previous Version | Graphics & Text | Print | Product List | Glossary On
Versions: 1 2 3 4 5 6 7 8 9 10 11 12 13 14 15 16 17 18 19 20 21 22 23 24 25 26 27 28 29 30 31 32 33 34 35 36 37 38 39 40 41 42 43 44 45 46 47 48 49 50
000
ASUS43 KLOT 241508
RWRIL

ILLINOIS REGIONAL WEATHER ROUNDUP
NATIONAL WEATHER SERVICE CHICAGO/ROMEOVILLE IL
1000 AM CDT TUE MAY 24 2016

NOTE: "FAIR" INDICATES FEW OR NO CLOUDS BELOW 12,000 FEET WITH NO
SIGNIFICANT WEATHER AND/OR OBSTRUCTIONS TO VISIBILITY.

* THESE STATIONS ARE NOT UNDER NWS QUALITY CONTROL. THEY ALSO MAY NOT
  REPORT WEATHER SUCH AS PRECIPITATION OR FOG.

ILZ001-002-007-009-015-016-024-241600-
NORTHWEST ILLINOIS

CITY           SKY/WX    TMP DP  RH WIND       PRES   REMARKS
MOLINE         SUNNY     76  60  57 S7        29.96R
STERLING*      SUNNY     76  59  55 CALM      29.98R
SAVANNA*       MOSUNNY   75  59  57 SW7       29.95S
$$

ILZ003-004-008-010-011-017-018-241600-
NORTH CENTRAL ILLINOIS

CITY           SKY/WX    TMP DP  RH WIND       PRES   REMARKS
ROCKFORD       MOSUNNY   77  58  51 S9        29.98S
FREEPORT*      SUNNY     74  58  56 SW10      29.98S
ROCHELLE*      SUNNY     76  58  53 S6        29.99S
DE KALB*       SUNNY     75  59  57 SW12      30.00R
$$

ILZ005-006-012>014-019>023-241600-
NORTHEAST ILLINOIS

CITY           SKY/WX    TMP DP  RH WIND       PRES   REMARKS
CHICAGO-OHARE  PTSUNNY   76  53  44 SW13      29.99S
CHICAGO-MIDWAY MOSUNNY   78  53  41 SW12      30.00F
AURORA         SUNNY     78  57  48 SW12      29.99F
LANSING*       SUNNY     75  52  44 SW10      30.02S
JOLIET*        SUNNY     79  57  47 SW10      30.00S HX  80
WAUKEGAN       SUNNY     77  55  46 S9        29.98S
DUPAGE AIRPORT SUNNY     76  56  49 S13       29.99F
KANKAKEE*      SUNNY    N/A N/A N/A SW13      30.02F
WHEELING       SUNNY     77  54  44 S8        30.00S
MORRIS*        SUNNY     79  52  38 S15       29.98F
ROMEOVILLE*    SUNNY     76  51  41 S10       30.01R
NORTHERLY ISL    N/A     76  49  38 S10         N/A
NORTHERLY ISL    N/A     76  49  38 S10         N/A
$$

LMZ740>746-241600-
SOUTHERN LAKE MICHIGAN

STATION/POSITION SKY/WX   TEMP    WIND        PRES    VSBY  WAVE
                          AIR SEA DIR/SP/G                  HT/PER
                          (F)     (DEG/KT/KT) (MB)    (MI)  (FT/S)
SOUTHERN BUOY              51 47  180/ 10/ 10 1015.5F         1
WILMETTE HARBOR            62 55  170/  6/  8   N/A           1
HARRISON CRIB              68     190/  9/ 11   N/A
BURNHAM HARBOR             77     180/  9/ 13   N/A
CALUMET HARBOR             71     200/  9/ 12 1015.8F
BURNS HARBOR               71     200/ 11/ 14 1016.9S
MICHIGAN CITY              70     180/  6/  7   N/A
MICHIGAN CITY 6N           67 57  210/  2/  2   N/A           0
ST. JOSEPH                 61 58  190/  4/  6   N/A           1
$$

ILZ025>027-034>036-040-047-049-050-058-095>099-241600-
WEST-CENTRAL ILLINOIS

CITY           SKY/WX    TMP DP  RH WIND       PRES   REMARKS
QUINCY         SUNNY     73  59  61 S8        29.98S
GALESBURG*     SUNNY     75  60  58 S10       29.97F
MACOMB*        SUNNY     76  59  54 S12       30.00S
JACKSONVILLE*  SUNNY     76  57  52 SW12      30.01R
PITTSFIELD*    SUNNY     74  60  61 S6        30.01S
$$

ILZ028>032-037-038-041>044-048-051>054-059>061-241600-
CENTRAL ILLINOIS

CITY           SKY/WX    TMP DP  RH WIND       PRES   REMARKS
PONTIAC        SUNNY     80  54  40 S14       30.01S HX  80
BLOOMINGTON    SUNNY     78  57  48 SW14      30.03S
DECATUR        SUNNY     79  55  43 SW12      30.03S
PEORIA         SUNNY     76  57  51 S7        30.00S
LACON*         SUNNY     76  58  54 S7        29.98S
LINCOLN*       SUNNY     79  59  50 S7        30.01R HX  80
SPRINGFIELD    SUNNY     82  60  47 S10       30.01R HX  82
TAYLORVILLE    MOSUNNY   78  55  44 S14G20    30.03R
$$

ILZ033-039-045-046-055>057-062-063-241600-
EAST-CENTRAL ILLINOIS

CITY           SKY/WX    TMP DP  RH WIND       PRES   REMARKS
CHAMPAIGN      SUNNY     79  52  38 SW15      30.04S
RANTOUL*       SUNNY     81  54  38 SW10      30.03S HX  80
MATTOON        SUNNY     74  54  49 S6        30.04F
PARIS*         SUNNY     78  55  44 SW6       30.07S
$$

ILZ079-100>102-241600-
SOUTHWEST ILLINOIS

CITY           SKY/WX    TMP DP  RH WIND       PRES   REMARKS
ALTON          PTSUNNY   70  59  68 S8        30.03R
CAHOKIA*       CLOUDY    70  60  70 VRB3      30.02R
SPARTA*        CLOUDY    70  60  71 S7        30.05R
$$

ILZ064>066-069>071-074>076-080>082-084>086-088>090-092>094-241600-
SOUTH-CENTRAL ILLINOIS

CITY           SKY/WX    TMP DP  RH WIND       PRES   REMARKS
CARBONDALE     CLOUDY    70  59  68 S6        30.05F
CAIRO*         CLOUDY    71  60  67 SE7       30.07R
EFFINGHAM*     PTSUNNY   75  59  57 SE7       30.07R
MARION         CLOUDY    70  59  68 S7        30.07R
MT. VERNON     CLOUDY    72  57  60 S7        30.07S
CENTRALIA*     CLOUDY    72  61  67 S10       30.04S
SALEM*         CLOUDY    73  59  60 S5        30.05S
METROPOLIS*    CLOUDY    71  63  77 CALM      30.08S
$$

ILZ067-068-072-073-078-083-087-091-241600-
SOUTHEAST ILLINOIS

CITY           SKY/WX    TMP DP  RH WIND       PRES   REMARKS
LAWRENCEVILLE  MOSUNNY   75  57  53 S7        30.07F
FLORA*         CLOUDY    77  59  53 S8        30.06S
FAIRFIELD*     PTSUNNY   76  58  54 S7        30.06R
HARRISBURG*    CLOUDY    72  61  68 SE5       30.07S
ROBINSON*      SUNNY     73  57  57 S6        30.08S
CARMI*         PTSUNNY   72  59  63 S7        30.07S
$$

ABBREVIATIONS USED IN REMARKS
   TC - TEMPERATURE IN CELSIUS
  WCI - WIND CHILL INDEX
   HX - HEAT INDEX
  VSB - VISIBILITY
$$




USA.gov is the U.S. government's official web portal to all federal, state and local government web resources and services.